BLOCK DM-SL R/B, 28138

Orbit data source: Space-Track

BLOCK DM-SL R/B, 28138 is space debris originally from a launch on Sun, 11 Jan 2004 UTC launched from the Sea Launch (SEAL). Debris objects in space refer to the collection of defunct objects orbiting the Earth. Examples of debris include non-operational satellites, rocket bodies, and fragments generated from explosions, collisions, or faulty payload assembly.

Loading next visibility...
BLOCK DM-SL R/B details
Identifier
28138, 2004-001B
Orbit
Molniya
Last TLE update1 day ago
Origin
Flag of USSeaLaunch (US / SEAL)
ManufacturerRKKE
MissionSpacecraft
Bus & MotorBLOK DM2, 11D58M
Mass~3,210 kg wet, 3,210 kg dry
Launch date (UTC)
2004-01-11 (21 years ago)
Launch vehicleUnknown
Launch site
Sea Launch (SEAL)
Object type
Payload
Rocket body
Debris
Shape & HBRCyl, 6.3 m
Radar Cross Section23.684 m², Large (>1 m²)

Expand to show TLE details & history

TLE from 1 day ago
0 BLOCK DM-SL R/B
1 28138U 04001B   24347.73740845  .00000042  00000-0  16059-2 0  9994
2 28138   0.0494 289.5354 7134973 222.0671 279.9086  2.24727955171790
Epoch: 2024-12-12T17:41Z
Definitive object data (Epoch: 2024-12-12T17:41:52.09Z)
Latitude0.07041°
Longitude12.6193°
Altitude26,075.999 km
Speed2.894 km/s
True Right ascension23h 59m 59s
True Declination0° 04' 13"
Sunlit
Object was in daylight at TLE epoch
Visualization TLE readout
Latitude0.01962°
Longitude-28.81857°
Altitude33,110.781 km
Speed2 km/s
Apparent Right ascension21h 26m 45s
Apparent Declination-6° 36' 24"
Sunlit
Object is in daylight
Visualization observer readout
Local Sidereal Time19:42:21
Azimuth146.515° SSE
Elevation37.616°
Doppler factor1
Orbital elements
Apogee altitude35,817.985 km
Perigee altitude677.201 km
Semi-major axis24,625.73 km
Eccentricity0.7134973
Inclination0.0494°
RAAN289.5354°
Arg. of periapsis222.0671°
True anomaly208.32879°
Mean anomaly279.9086°
Eccentric anomaly243.36608°
Mean motion0.56164 °/min
BSTAR0.0016059
Orbital period640.98 mins
Loading maneuver chart data...
Loading historical data...
Loading historical data...
Loading historical data...
Loading historical data...
Loading historical data...
Loading historical data...
Loading historical data...
Other satellites on launch #1 in the year 2004 (2004-01-11 UTC)

BLOCK DM-SL R/B Visibility forecast

Observer location: undefined°, undefined

Span
Click to sort rows by Start time (UTC) header in descending order
Start Az.
Max El. time (UTC)
Max El. Az.
Max El.
End time (UTC)
End Az.
388 mins2024-12-13 21:10:39.799Z146.526° SSE2024-12-14 00:06:39.799Z174.609° S34.503°2024-12-14 03:38:39.799Z138.028° SSE
179 mins2024-12-14 18:11:39.799Z107.404° ESE2024-12-14 21:10:39.799Z123.205° SE23.064°2024-12-14 21:10:39.799Z123.205° SE
|